Home   Weather   Coral Harbour   Past weeks

Flag for Canada Past Weather in Coral Harbour, Nunavut, Canada — Yesterday and Last 2 Weeks

Now
0 °F

Passing clouds.


Feels Like: -21 °F
Forecast: -14 / 11 °F
Wind: 16 mph from Northwest

Location: Coral Harbour

Current Time: Apr 25, 2017 at 7:34:21 pm

Latest Report: Apr 25, 2017 at 6:00 pm


Visibility: 15 mi

Pressure: 30.22 "Hg

Humidity: 71%

Dew Point: -8 °F

Location of Coral HarbourLocation

Past Weather in Coral Harbour — Graph

°F

Coral Harbour Temperature Yesterday

Maximum temperature yesterday: 10 °F (at 1:00 pm)
Minimum temperature yesterday: -11 °F (at 12:00 am)
Average temperature yesterday: 1 °F

High & Low Weather Summary for the Past Weeks

 TemperatureHumidityPressure
High14 °F (Apr 18, 3:00 pm)85% (Apr 16, 1:00 pm)30.36 "Hg (Apr 16, 1:00 pm)
Low-24 °F (Apr 14, 4:00 am)60% (Apr 14, 4:00 pm)29.52 "Hg (Apr 10, 6:00 pm)
Average-3 °F74%30.10 "Hg
* Reported Apr 10 6:00 pm — Apr 25 6:00 pm, Coral Harbour, Weather by CustomWeather, © 2017

Note: Actual official high and low records may vary slightly from our data, if they occured in-between our weather recording intervals... More about our weather records

Advertising

Coral Harbour Weather History for the Previous 24 Hours

Scroll right to see more
 ConditionsComfort  
Time TempWeatherWind HumidityBarometerVisibility
6:00 pm
Tue, Apr 25
0 °FPassing clouds.16 mph71%30.22 "Hg15 mi
5:00 pm1 °FPassing clouds.18 mph65%30.22 "Hg15 mi
4:00 pm3 °FPassing clouds.17 mph66%30.22 "Hg15 mi
3:00 pm3 °FPassing clouds.17 mph66%30.22 "Hg15 mi
2:00 pm3 °FPartly sunny.17 mph66%30.22 "Hg15 mi
1:00 pm1 °FPartly sunny.16 mph71%30.22 "Hg15 mi
12:00 pm1 °FPartly sunny.15 mph71%30.22 "Hg15 mi
11:00 am0 °FPartly sunny.16 mph71%30.21 "Hg15 mi
10:00 am0 °FPartly sunny.17 mph65%30.22 "Hg15 mi
9:00 am-4 °FScattered clouds.16 mph71%30.22 "Hg15 mi
8:00 am-4 °FScattered clouds.16 mph71%30.22 "Hg15 mi
7:00 am-8 °FScattered clouds.14 mph70%30.22 "Hg15 mi
6:00 am-8 °FScattered clouds.20 mph77%30.20 "Hg15 mi
5:00 am-8 °FPassing clouds.14 mph70%30.19 "Hg15 mi
4:00 am-8 °FLow level haze.13 mph77%30.17 "Hg15 mi
3:00 am-6 °FPassing clouds.20 mph77%30.16 "Hg15 mi
2:00 am-6 °FLow level haze.17 mph77%30.15 "Hg15 mi
1:00 am-4 °FLow level haze.18 mph77%30.14 "Hg15 mi
12:00 am-4 °FLow level haze.17 mph77%30.13 "Hg15 mi
11:00 pm
Mon, Apr 24
-2 °FPassing clouds.20 mph77%30.12 "Hg15 mi
10:00 pm0 °FPassing clouds.18 mph78%30.12 "Hg15 mi
9:00 pm1 °FScattered clouds.15 mph71%30.11 "Hg15 mi
8:00 pm3 °FPartly sunny.16 mph78%30.11 "Hg15 mi
7:00 pm5 °FPartly sunny.17 mph78%30.10 "Hg15 mi
Weather by CustomWeather, © 2017

See weather overviewHow to use our weather pages